FW6569 Weather Reports


time (UTC)temp
F
wind
direction
speed
knots
gust
knots
rain 1hr
in
rain 24hr
in
rain mn
in
humidity
%
barometer
mb
20260509143519 64 207 7.0 8.7 0.00 0.24 0.19 79 1009.5
20260509142519 63 189 6.1 7.8 0.00 0.24 0.19 79 1009.4
20260509141519 63 204 5.2 7.8 0.00 0.24 0.19 81 1009.3
20260509140519 62 175 6.1 8.7 0.00 0.24 0.19 82 1009.3
20260509135519 62 197 5.2 7.8 0.00 0.24 0.19 84 1009.4
20260509134540 61 215 5.2 7.8 0.00 0.24 0.19 86 1009.3
20260509133519 61 215 6.1 7.8 0.00 0.24 0.19 85 1009.2
20260509132519 61 205 4.3 6.1 0.00 0.24 0.19 87 1009.2
20260509131520 60 194 5.2 7.8 0.00 0.24 0.19 89 1009.3
20260509130519 59 203 5.2 7.8 0.00 0.24 0.19 89 1009.3
20260509125520 58 188 3.5 4.3 0.00 0.24 0.19 92 1009.2
20260509124519 57 194 3.5 5.2 0.00 0.24 0.19 94 1009.2
20260509123539 57 207 2.6 4.3 0.00 0.24 0.19 97 1009.1
20260509122519 56 207 1.7 4.3 0.00 0.24 0.19 97 1009.0
20260509121519 55 175 2.6 3.5 0.01 0.24 0.19 98 1008.9
20260509120520 55 201 1.7 2.6 0.01 0.24 0.19 99 1008.8
20260509115520 54 192 2.6 3.5 0.01 0.24 0.19 99 1008.9
20260509114519 54 214 1.7 3.5 0.01 0.24 0.19 99 1008.9
20260509113519 54 186 1.7 3.5 0.01 0.24 0.19 99 1008.8
20260509112520 54 185 1.7 3.5 0.01 0.24 0.19 99 1008.6
20260509111520 54 196 3.5 4.3 0.00 0.23 0.18 99 1008.6
20260509110520 54 175 0.9 1.7 0.00 0.23 0.18 99 1008.5
20260509105519 54 110 0.0 1.7 0.00 0.23 0.18 99 1008.4
20260509104520 54 62 0.0 1.7 0.00 0.23 0.18 99 1008.3
20260509103520 54 155 1.7 3.5 0.00 0.23 0.18 99 1008.3
20260509102520 54 161 0.9 1.7 0.01 0.23 0.18 99 1008.4
20260509101520 54 170 0.9 1.7 0.01 0.23 0.18 99 1008.6
20260509100540 54 187 0.9 2.6 0.03 0.23 0.18 99 1008.9
20260509095519 54 181 1.7 2.6 0.04 0.23 0.18 99 1008.8
20260509094520 54 0.0 0.0 0.04 0.23 0.18 98 1008.9
20260509093520 54 0.0 0.0 0.04 0.23 0.18 98 1009.2
20260509092520 54 203 0.9 1.7 0.04 0.22 0.17 98 1009.3
20260509091701 54 0.0 0.9 0.05 0.22 0.17 98 1009.2
20260509090520 54 203 1.7 2.6 0.05 0.20 0.15 98 1009.4
20260509085520 54 0.0 0.0 0.04 0.19 0.14 98 1009.3
20260509084520 54 89 0.9 2.6 0.05 0.19 0.14 98 1009.4
20260509083540 54 0.0 0.0 0.06 0.19 0.14 98 1009.5
20260509082600 54 152 0.0 1.7 0.06 0.18 0.13 98 1009.7
20260509081520 54 0.0 0.0 0.06 0.17 0.12 98 1009.7
20260509080520 54 0.0 0.0 0.05 0.15 0.10 98 1009.8
20260509075520 54 0.0 0.0 0.06 0.15 0.10 98 1009.8
20260509074540 54 0.0 0.0 0.05 0.14 0.09 98 1009.7
20260509073520 54 133 0.9 1.7 0.04 0.13 0.08 98 1010.0
20260509072521 54 0.0 0.9 0.03 0.12 0.07 98 1010.1
20260509071520 54 0.0 0.0 0.02 0.11 0.06 97 1010.2
20260509070520 54 0.0 0.0 0.02 0.10 0.05 97 1010.1
20260509065520 54 127 0.9 1.7 0.02 0.09 0.04 97 1010.0
20260509064520 54 0.0 0.0 0.02 0.09 0.04 97 1010.2
20260509063540 54 0.0 0.0 0.03 0.09 0.04 97 1010.3
20260509062600 54 0.0 0.0 0.03 0.09 0.04 97 1010.5
20260509061520 54 0.0 0.0 0.03 0.09 0.04 97 1010.5
20260509060520 54 0.0 0.0 0.02 0.08 0.03 97 1010.8
20260509055520 54 0.0 0.0 0.01 0.07 0.02 97 1010.9
20260509054520 54 0.0 0.0 0.01 0.07 0.02 97 1010.9
20260509053601 54 0.0 0.0 0.00 0.06 0.01 97 1010.8
20260509052520 54 25 0.0 0.9 0.00 0.06 0.01 97 1010.7
20260509051520 54 343 0.9 2.6 0.00 0.06 0.01 97 1010.6
20260509050540 54 3 0.0 1.7 0.01 0.06 0.01 96 1010.5
20260509045520 54 3 0.0 1.7 0.01 0.06 0.01 96 1010.4
20260509044520 55 357 0.9 2.6 0.01 0.06 0.01 96 1010.3
20260509043540 55 353 2.6 4.3 0.01 0.06 0.01 96 1010.3
20260509042520 55 338 0.0 2.6 0.02 0.06 0.01 96 1010.5
20260509041521 55 357 1.7 2.6 0.02 0.06 0.01 96 1010.6
20260509040520 55 357 0.0 1.7 0.02 0.05 0.00 96 1010.7
20260509035520 55 358 0.9 2.6 0.02 0.05 0.05 95 1010.7
20260509034521 55 6 0.9 2.6 0.03 0.05 0.05 95 1010.9
20260509033540 55 354 0.9 1.7 0.03 0.05 0.05 95 1011.1
20260509032541 55 12 0.9 1.7 0.03 0.04 0.04 94 1011.2
20260509031520 55 0.0 0.0 0.04 0.04 0.04 93 1011.3
20260509030520 55 0.0 0.0 0.03 0.03 0.03 93 1011.3
20260509025521 55 0.0 0.0 0.03 0.03 0.03 93 1011.3
20260509024541 55 0.0 0.0 0.02 0.02 0.02 92 1011.3
20260509023520 55 0.0 0.0 0.02 0.02 0.02 92 1011.1
20260509022521 56 21 0.0 2.6 0.01 0.01 0.01 91 1011.3
20260509021520 56 8 1.7 3.5 0.00 0.00 0.00 91 1011.3
20260509020521 56 8 2.6 6.1 0.00 0.00 0.00 90 1011.5
20260509015520 56 360 2.6 4.3 0.00 0.00 0.00 88 1011.6
20260509014521 56 351 1.7 5.2 0.00 0.00 0.00 87 1011.4
20260509013521 57 359 3.5 7.8 0.00 0.00 0.00 85 1011.1
20260509012521 58 5 2.6 5.2 0.00 0.00 0.00 83 1011.1
20260509011521 58 346 2.6 5.2 0.00 0.00 0.00 80 1011.0
20260509010541 59 332 1.7 5.2 0.00 0.00 0.00 77 1010.7
20260509005520 60 348 1.7 3.5 0.00 0.00 0.00 74 1010.3
20260509004521 60 345 0.9 4.3 0.00 0.00 0.00 71 1010.2
20260509003521 61 7 3.5 5.2 0.00 0.00 0.00 70 1010.2
20260509002521 61 348 0.9 3.5 0.00 0.00 0.00 68 1010.3
20260509001521 62 360 0.9 1.7 0.00 0.00 0.00 64 1010.2
20260509000521 63 0.0 0.0 0.00 0.00 0.00 65 1010.3
20260508235521 63 0.0 0.0 0.00 0.00 0.00 62 1010.3
20260508234601 64 323 0.0 0.9 0.00 0.00 0.00 59 1010.2
20260508233521 64 188 1.7 2.6 0.00 0.00 0.00 58 1010.2
20260508232521 64 0.0 0.0 0.00 0.00 0.00 60 1010.3
20260508231521 65 226 2.6 3.5 0.00 0.00 0.00 55 1010.2
20260508230521 65 207 1.7 4.3 0.00 0.00 0.00 56 1010.2
20260508225521 65 245 2.6 6.1 0.00 0.00 0.00 55 1010.2
20260508224521 65 207 2.6 3.5 0.00 0.00 0.00 57 1010.2
20260508223521 64 265 0.9 1.7 0.00 0.00 0.00 59 1010.2
20260508222521 64 202 0.9 3.5 0.00 0.00 0.00 58 1010.1
20260508221521 65 227 0.9 3.5 0.00 0.00 0.00 58 1010.1
20260508220521 65 327 0.0 0.9 0.00 0.00 0.00 56 1010.1
20260508215521 66 273 1.7 3.5 0.00 0.00 0.00 52 1010.0
20260508214521 67 222 3.5 5.2 0.00 0.00 0.00 50 1010.0
20260508213521 67 256 2.6 4.3 0.00 0.00 0.00 49 1010.0
20260508212521 67 212 4.3 7.0 0.00 0.00 0.00 48 1009.9
20260508211521 67 218 3.5 8.7 0.00 0.00 0.00 48 1010.1
20260508210521 67 239 4.3 7.0 0.00 0.00 0.00 48 1010.3
20260508205521 68 226 6.1 7.8 0.00 0.00 0.00 47 1010.2
20260508204521 69 219 4.3 6.1 0.00 0.00 0.00 48 1010.2
20260508203521 69 221 4.3 7.0 0.00 0.00 0.00 47 1010.5
20260508202541 69 232 4.3 7.0 0.00 0.00 0.00 46 1010.6
20260508201542 68 213 7.0 12.2 0.00 0.00 0.00 45 1010.9
20260508200542 68 229 6.1 10.4 0.00 0.00 0.00 45 1011.1
20260508195522 68 208 7.8 10.4 0.00 0.00 0.00 45 1011.5
20260508194522 68 232 6.1 15.6 0.00 0.00 0.00 45 1011.5
20260508193521 68 206 7.8 12.2 0.00 0.00 0.00 47 1011.7
20260508192521 67 202 9.6 13.9 0.00 0.00 0.00 45 1011.8
20260508191522 67 217 6.1 11.3 0.00 0.00 0.00 47 1012.0
20260508190521 67 215 8.7 13.9 0.00 0.00 0.00 46 1012.1
20260508185521 68 225 8.7 13.9 0.00 0.00 0.00 44 1012.1
20260508184522 68 226 8.7 13.9 0.00 0.00 0.00 44 1012.2
20260508183521 69 198 10.4 14.8 0.00 0.00 0.00 42 1012.1
20260508182542 70 189 9.6 13.9 0.00 0.00 0.00 43 1012.1
20260508181542 70 216 8.7 13.9 0.00 0.00 0.00 44 1012.2
20260508180522 68 199 9.6 14.8 0.00 0.00 0.00 44 1012.5
20260508175521 69 201 10.4 14.8 0.00 0.00 0.00 44 1012.6
20260508174522 69 196 10.4 15.6 0.00 0.00 0.00 45 1012.9
20260508173521 67 208 7.8 11.3 0.00 0.00 0.00 48 1013.2
20260508172522 67 191 9.6 13.0 0.00 0.00 0.00 47 1013.4
20260508171542 68 208 10.4 15.6 0.00 0.00 0.00 46 1013.5
20260508170522 66 207 8.7 13.0 0.00 0.00 0.00 49 1013.7
20260508165522 66 234 6.1 10.4 0.00 0.00 0.00 49 1014.0
20260508164521 68 220 11.3 20.0 0.00 0.00 0.00 46 1014.0
20260508163522 67 225 7.8 13.0 0.00 0.00 0.00 48 1014.1
20260508162522 67 220 8.7 13.0 0.00 0.00 0.00 49 1014.4
20260508161522 64 223 7.8 13.0 0.00 0.00 0.00 51 1014.5
20260508160522 63 220 7.8 11.3 0.00 0.00 0.00 52 1014.7
20260508155522 63 218 8.7 13.9 0.00 0.00 0.00 51 1014.8
20260508154522 65 217 11.3 15.6 0.00 0.00 0.00 50 1014.9
20260508153522 64 233 7.0 9.6 0.00 0.00 0.00 53 1014.9
20260508152522 63 232 8.7 12.2 0.00 0.00 0.00 53 1014.9
20260508151542 63 215 10.4 14.8 0.00 0.00 0.00 53 1015.0
20260508150522 62 213 9.6 13.0 0.00 0.00 0.00 52 1014.9
20260508145522 62 202 9.6 12.2 0.00 0.00 0.00 52 1014.9
20260508144522 62 226 6.1 13.9 0.00 0.00 0.00 54 1015.2